Tracking 19706 objects as of 16-Jun-2019
HD Live streaming from Space Station
objects crossing your sky now

CZ-4 DEB

Track CZ-4 DEB now!
10-day predictions


NORAD ID: 26168
Int'l Code: 1999-057BE
Perigee: 711.5 km
Apogee: 859.6 km
Inclination: 98.7 °
Period: 100.4 minutes
Semi major axis: 7156 km
RCS: 0.15 m2 (medium)
Launch date: October 14, 1999
Source: People's Republic of China (PRC)
Launch site: Taiyaun Space Center, China (TSC)

Note: This is SATELLITE DEBRIS
aabbcc
Your satellite tracking list
Your tracking list is empty




NASA's NSSDC Master Catalog

Two Line Element Set (TLE):
1 26168U 99057BE  19165.85683432 -.00000006 +00000-0 +14198-4 0  9998
2 26168 098.7042 119.6832 0103445 271.4806 140.9514 14.33986837006901
Source of the keplerian elements: AFSPC